Theta_e
312 313 313 313 313 313 313 313 312 313 314 315 315 315 315 315 315 316 317 318 318 319 321 323 324 326 327 328 328 330 331 332 332 331 330 331 333 334 334 334 335 336 336 337 337 337 337 337 336 334 333 333 334 334 335 336 335 334 333 333 333 333 333 333 333 332 331 331 330
312 312 312 311 311 312 313 312 312 313 314 315 315 315 316 316 316 316 316 317 318 319 321 322 324 325 327 327 328 329 330 331 332 331 331 332 333 334 334 334 335 336 336 336 336 336 336 336 336 334 332 332 333 333 334 337 337 334 333 333 333 333 333 332 332 332 332 331 330
311 312 312 312 312 312 312 312 313 313 314 315 315 316 316 316 316 316 316 317 319 320 321 321 323 325 327 327 328 329 330 331 331 331 331 332 332 334 334 334 335 335 336 335 335 335 334 335 334 332 330 331 331 331 332 334 335 334 333 333 333 332 332 331 331 331 331 331 331
312 312 312 312 312 312 312 312 312 313 314 314 315 316 316 316 316 316 317 318 318 319 320 321 324 326 327 327 328 329 329 328 330 331 331 331 332 333 334 335 334 335 336 336 336 335 335 334 333 331 331 331 331 331 331 332 333 333 332 333 332 332 331 330 330 329 330 330 330
313 313 313 312 312 312 312 312 312 312 313 314 314 315 315 316 317 317 318 318 318 318 320 322 326 327 328 327 327 328 328 328 326 328 331 331 332 332 333 334 334 334 335 336 336 336 335 334 333 331 331 331 330 330 331 332 333 332 332 332 332 331 330 329 329 329 328 328 328
313 313 313 313 313 312 312 312 312 312 313 313 313 314 314 315 316 316 317 317 318 319 320 321 324 325 326 326 327 327 328 328 328 329 330 332 331 332 333 333 334 334 335 335 335 336 336 334 331 331 331 331 331 330 331 333 332 332 331 331 331 330 330 329 328 328 328 327 327
314 314 314 314 314 313 313 313 313 313 313 312 312 313 314 315 315 316 317 317 318 318 319 319 322 324 325 326 326 326 327 327 328 329 330 331 331 332 332 332 334 334 334 335 335 335 336 335 332 330 329 328 329 330 331 331 331 331 330 329 329 329 329 329 328 328 328 327 327
314 314 315 315 315 314 314 313 313 313 312 312 312 312 314 315 316 316 317 317 317 318 319 320 323 324 325 326 327 327 328 327 328 328 330 330 331 332 333 333 333 334 334 335 335 334 334 334 331 330 329 329 329 330 331 331 332 331 329 329 328 328 328 328 328 328 327 328 327
314 315 316 316 316 315 315 315 314 313 313 312 313 313 313 314 315 316 317 317 316 318 320 322 323 324 325 326 327 328 329 329 329 328 329 330 331 332 333 333 333 333 333 335 335 334 334 332 331 330 329 329 328 329 330 331 331 330 329 327 327 327 327 327 327 327 327 327 327
314 316 317 317 317 317 316 315 315 314 314 313 313 313 312 311 313 315 316 316 317 318 319 322 323 324 325 325 327 328 329 330 330 330 330 331 331 332 333 333 333 332 333 334 334 333 333 332 330 330 330 328 328 329 329 330 330 329 328 325 326 326 327 326 327 327 327 326 327
316 317 317 317 317 317 316 315 315 314 314 313 313 313 312 311 313 314 315 317 319 319 319 321 324 324 325 325 327 328 329 330 330 331 331 331 331 332 333 333 333 333 333 334 334 333 332 331 331 331 331 329 328 328 328 329 329 328 327 325 325 326 326 325 325 326 326 326 327
316 317 318 317 317 316 316 314 314 314 314 314 314 313 313 313 313 315 316 318 318 318 318 320 322 324 324 325 326 327 328 329 330 331 331 332 331 331 333 334 334 334 334 334 334 333 332 332 332 332 332 330 329 328 328 328 328 327 327 326 325 325 325 324 324 325 325 326 327
317 318 318 317 316 315 314 313 313 314 314 314 314 313 313 313 314 315 316 317 317 317 318 320 321 323 324 325 325 326 327 329 329 330 330 330 330 329 331 332 333 334 333 333 333 333 332 332 332 332 332 331 329 328 328 328 328 327 326 325 325 325 324 324 324 324 325 325 326
317 318 318 317 316 314 313 312 313 313 314 314 314 313 313 313 313 314 316 317 317 318 319 320 320 321 322 323 324 324 326 327 329 329 329 328 328 329 329 330 332 332 332 332 333 333 332 331 331 331 331 331 330 329 328 328 327 327 326 325 324 324 324 324 324 324 325 325 325
317 318 317 316 315 313 312 311 312 313 314 314 314 313 313 313 312 313 315 317 318 318 320 322 321 321 322 323 323 324 324 326 327 328 328 327 327 328 329 329 330 331 331 332 333 333 332 332 331 330 330 330 330 330 329 328 327 327 326 325 325 324 324 325 325 325 325 326 326
317 317 316 315 314 313 312 311 312 313 313 313 314 313 313 313 313 314 315 318 318 319 321 323 323 322 322 322 323 324 325 326 326 326 327 327 327 328 328 328 329 330 331 331 332 332 332 331 330 330 329 329 330 330 330 329 329 327 327 326 325 325 325 326 326 326 326 326 326
315 315 315 314 313 312 312 311 312 312 313 313 314 313 313 313 313 314 315 317 319 320 322 323 323 323 323 322 323 324 325 326 326 326 326 326 327 327 327 328 328 329 330 331 331 332 332 332 331 330 329 329 330 330 330 330 330 328 327 327 327 328 328 327 327 327 327 327 327
315 315 314 313 312 312 311 312 312 312 313 313 314 314 313 313 314 315 316 318 319 320 322 323 324 324 324 324 324 323 324 325 326 325 325 326 326 327 328 328 328 328 329 330 331 331 331 332 331 330 330 330 331 330 330 330 330 329 330 329 329 330 329 329 329 328 328 327 327
315 315 314 313 312 312 311 312 312 312 313 314 315 315 314 313 314 316 318 319 319 320 321 323 323 324 324 324 324 323 323 325 326 326 325 326 326 327 327 328 328 328 328 329 330 330 331 331 331 331 330 330 330 330 330 330 330 330 330 330 330 331 331 331 331 330 329 328 328
315 315 314 314 313 312 312 312 312 313 314 315 315 315 315 314 316 317 318 320 320 321 322 322 323 324 323 324 324 324 324 324 326 326 326 326 326 327 328 328 328 328 328 329 329 329 330 330 330 330 330 330 329 329 329 329 329 330 330 330 330 330 331 331 331 330 329 329 329
314 315 315 315 314 313 312 313 313 313 314 315 314 315 315 316 317 318 319 320 321 321 322 323 323 323 323 323 324 324 325 324 326 326 326 326 326 327 328 328 328 328 328 328 328 329 329 329 329 329 329 329 329 329 329 329 329 329 330 329 330 330 331 331 330 330 329 329 329
314 315 316 316 315 314 313 313 313 313 314 315 315 316 316 316 317 317 319 320 320 321 321 323 323 323 323 323 323 324 324 324 326 326 326 326 326 327 327 328 328 328 328 328 328 328 328 328 329 329 329 329 328 328 328 328 328 328 329 329 329 330 331 330 330 329 329 329 329
314 315 316 316 315 313 313 313 314 314 315 315 315 316 317 316 316 318 319 320 320 321 321 322 323 323 323 324 324 325 325 325 325 326 326 327 327 327 327 328 328 327 327 328 328 328 328 328 328 328 329 328 328 328 328 328 328 328 328 328 329 329 330 330 330 329 329 329 328
315 315 316 317 316 315 314 314 315 315 314 315 316 316 317 316 317 318 319 320 320 321 322 323 323 323 324 325 325 325 325 324 324 325 326 327 327 327 327 327 327 327 327 327 326 325 325 325 327 328 328 328 328 328 328 328 327 328 328 328 328 328 328 329 329 329 328 328 328
315 315 315 315 316 315 315 314 314 315 315 315 315 316 317 317 317 318 319 320 322 322 323 324 324 324 324 324 325 325 325 324 323 324 325 326 327 327 327 327 326 326 326 325 316 313 313 316 321 325 327 328 329 329 329 328 328 328 329 328 328 327 328 327 328 328 327 328 328
314 314 314 313 314 314 314 314 315 315 316 316 317 317 317 318 318 318 318 321 322 322 323 323 323 323 323 324 324 324 324 323 323 324 324 325 326 326 326 326 327 327 326 320 311 307 307 308 311 316 323 329 329 329 329 329 329 329 329 328 328 327 327 327 326 326 327 328 328
315 314 313 313 313 313 313 314 314 315 315 315 315 316 317 318 319 319 320 321 322 323 323 324 323 321 321 324 324 324 323 323 323 324 325 325 325 325 325 325 326 328 325 314 307 304 304 305 306 309 316 328 329 328 328 328 329 330 329 328 328 327 327 326 325 326 326 326 327
316 315 314 313 313 313 313 313 314 314 314 314 314 315 317 318 319 319 320 321 321 322 323 323 322 322 321 323 323 324 324 324 324 324 325 325 325 325 325 324 326 325 319 308 303 302 302 303 304 305 309 321 328 330 329 328 328 329 328 329 328 327 326 325 325 325 325 325 327
316 316 315 314 314 314 313 313 313 314 314 314 314 315 316 318 318 318 319 320 320 320 320 321 321 321 321 322 322 323 324 324 324 324 325 324 324 324 324 324 325 320 312 301 301 301 302 302 302 302 305 313 323 327 328 328 327 326 327 328 326 326 325 325 325 325 326 326 326
315 316 316 317 316 315 314 313 313 314 315 315 315 316 316 316 317 317 318 319 319 318 319 320 320 321 321 322 322 323 323 323 324 324 324 324 324 324 324 322 325 320 310 298 300 301 302 302 302 302 304 307 317 323 326 326 326 325 325 325 326 326 326 325 326 326 326 326 325
315 315 315 316 316 315 315 314 314 314 314 316 316 316 317 317 317 318 318 318 319 318 318 320 321 321 322 322 323 323 323 323 322 323 324 324 322 322 323 324 325 321 311 297 300 301 302 303 303 303 303 304 314 322 326 326 326 325 324 325 325 326 326 325 326 327 326 325 324
315 315 315 314 314 315 315 315 314 313 313 314 314 315 316 318 318 319 320 320 320 319 319 320 321 322 322 322 322 322 322 322 322 322 322 323 323 324 323 323 325 319 308 297 300 301 302 303 303 303 303 303 312 321 327 325 325 324 324 325 325 326 326 325 325 325 324 323 322
315 315 315 315 315 315 316 316 315 313 312 312 312 313 314 315 317 319 320 320 320 320 321 321 322 321 321 321 321 321 321 321 321 321 321 322 323 323 323 323 324 314 303 297 300 301 302 302 302 302 302 302 312 321 325 325 324 324 324 325 325 325 325 325 324 323 323 323 322
315 316 315 315 316 316 317 317 316 315 314 312 312 312 312 313 314 316 318 318 319 321 321 321 322 321 321 320 321 320 320 320 321 322 323 323 323 324 324 323 324 312 300 297 300 301 302 302 302 302 302 302 312 319 323 324 322 321 322 322 324 324 324 324 323 323 323 323 323
315 315 315 316 316 316 317 317 318 317 316 315 315 315 314 314 314 316 316 316 318 320 321 321 321 321 321 321 321 321 321 321 323 323 323 324 324 324 324 323 321 308 298 297 299 301 301 301 302 302 302 305 313 318 319 319 317 317 317 318 319 320 321 321 322 322 323 323 323
315 315 314 315 315 316 317 317 317 317 317 317 317 317 317 317 317 317 317 316 318 319 320 320 321 321 321 321 322 321 321 323 324 324 324 325 325 324 323 322 318 307 298 297 299 300 300 300 300 301 302 307 312 314 313 313 312 312 313 313 314 315 316 317 319 320 321 322 322
315 314 314 314 315 316 316 317 317 317 317 317 317 317 317 318 318 318 318 318 319 320 320 321 321 320 320 321 322 322 322 322 323 324 324 323 324 323 322 319 316 307 299 296 298 299 299 299 299 301 304 308 310 310 309 308 308 308 308 308 308 308 310 311 313 314 316 317 318
316 315 314 314 314 315 316 316 316 316 315 315 315 315 316 316 317 317 317 316 319 320 320 321 321 321 321 322 322 322 323 323 323 323 324 322 322 321 319 317 314 307 301 297 297 298 299 299 299 301 304 308 308 307 306 305 305 304 303 303 302 303 303 304 306 307 308 309 306
317 316 316 315 314 314 315 314 314 314 313 313 314 314 314 315 315 315 316 316 318 319 319 320 320 321 321 319 321 322 322 323 322 322 321 320 318 316 315 315 311 307 302 297 297 298 298 299 299 300 302 305 306 305 304 303 302 301 300 299 298 298 299 300 300 301 302 301 298
315 316 315 315 314 314 313 312 312 312 312 312 312 313 313 313 313 314 315 316 318 318 317 317 317 316 315 312 315 317 317 317 318 318 317 316 314 310 309 312 309 305 301 297 297 298 298 298 299 300 301 304 305 304 303 301 300 299 298 297 297 297 297 297 298 298 298 297 295
311 312 312 312 312 312 311 310 310 310 310 310 311 311 311 311 312 313 314 315 315 315 314 313 312 311 310 307 309 309 308 309 310 311 311 310 308 306 306 309 307 305 301 298 298 298 298 298 299 300 301 304 305 304 302 300 299 297 297 297 296 296 296 296 296 296 295 295 294
Wind_Speed
14 13 12 12 11 11 11 10 11 11 11 12 12 12 12 12 12 12 12 12 12 12 12 12 12 13 14 18 19 20 20 21 23 23 23 23 23 24 24 23 21 20 20 20 20 19 17 16 13 11 10 11 12 13 13 11 14 15 15 15 14 15 17 18 18 19 20 18 14
15 15 14 13 12 11 10 10 11 11 12 12 12 13 13 12 12 13 13 14 13 12 12 12 13 14 17 19 20 20 21 21 23 23 23 24 24 24 23 22 22 21 21 22 22 19 17 16 14 11 10 10 12 13 13 11 12 14 16 18 15 14 15 17 17 19 20 19 16
15 15 14 14 14 13 12 11 12 13 14 14 13 13 13 13 12 12 13 14 14 14 13 12 13 15 18 19 19 19 20 21 22 23 23 23 23 24 23 21 22 22 21 21 21 19 18 18 15 12 10 11 13 14 14 13 14 15 16 19 15 13 13 13 15 17 17 15 16
15 15 15 15 16 16 15 13 14 15 16 14 14 14 14 13 12 12 13 14 16 16 14 13 12 13 15 17 18 19 20 20 22 23 23 23 23 24 24 22 23 23 22 22 22 21 20 20 16 13 12 14 15 15 14 13 15 15 14 16 14 13 13 12 13 14 14 14 15
16 15 15 15 18 18 17 16 16 17 16 14 14 14 14 14 13 13 13 14 15 15 16 16 13 12 13 16 18 20 21 22 22 21 22 23 24 24 24 24 24 23 23 22 23 22 22 23 17 14 14 15 15 15 14 15 16 15 14 13 13 12 12 12 12 12 13 13 14
15 16 17 16 18 18 17 16 18 18 16 14 15 16 16 14 14 14 14 14 15 17 19 19 15 14 14 17 19 20 20 21 21 21 21 23 23 24 25 25 24 23 22 23 24 23 23 22 17 14 14 15 15 15 16 18 16 16 15 13 13 12 12 13 12 12 13 14 15
15 17 18 18 19 19 18 18 18 18 17 16 18 20 20 18 18 18 18 16 16 17 17 16 16 16 17 18 19 19 19 19 20 21 22 22 23 24 24 25 25 24 24 23 24 23 22 20 16 14 14 14 13 15 18 18 16 16 16 15 13 12 13 14 12 13 14 18 19
16 17 18 19 19 20 20 20 19 18 17 16 18 21 23 23 22 22 21 18 17 16 15 14 17 19 20 19 18 18 19 20 20 21 22 22 23 24 24 24 25 25 25 24 24 23 22 19 16 15 15 14 13 15 18 20 19 18 18 17 14 13 13 13 13 13 16 20 22
15 17 18 19 20 20 20 21 20 20 19 19 20 22 24 24 24 23 21 19 17 16 15 14 18 20 22 21 20 19 18 18 19 20 21 21 23 23 23 23 24 24 24 23 24 24 23 18 16 15 15 14 14 15 18 21 21 21 20 18 15 14 14 14 14 15 17 20 22
17 18 18 18 19 19 19 20 21 21 22 22 23 23 23 23 22 22 20 17 16 16 16 16 18 20 21 22 21 19 18 17 18 19 20 20 21 21 22 21 22 23 23 22 22 24 23 19 17 16 16 16 17 18 19 21 22 22 21 16 15 16 17 16 17 18 18 19 22
19 18 17 15 16 16 17 18 19 20 21 22 23 23 23 22 22 21 19 16 16 18 19 18 18 19 19 20 19 19 18 17 17 18 19 20 20 21 21 20 22 23 23 22 21 21 20 18 18 19 19 18 19 20 20 22 23 24 22 17 17 18 19 19 19 18 18 19 22
19 18 16 14 15 15 16 17 17 18 20 21 22 22 22 22 22 21 19 18 20 20 20 19 19 19 18 16 17 18 18 19 19 19 19 20 22 22 22 22 22 23 23 23 21 19 18 18 19 20 21 21 18 18 19 23 24 24 23 21 20 20 20 21 20 19 17 19 21
19 17 15 14 14 15 16 16 15 16 18 20 21 21 21 21 21 21 20 21 21 20 18 19 19 19 18 16 17 18 18 19 20 20 20 21 22 23 23 22 22 23 23 23 21 19 18 19 21 22 22 22 18 17 19 23 24 24 24 23 22 21 21 22 21 20 19 20 21
19 17 15 14 14 14 14 15 14 15 17 20 20 20 20 20 20 20 20 21 20 19 17 17 17 18 18 19 19 19 20 20 20 21 21 22 23 23 24 23 23 23 22 21 21 21 21 21 23 23 23 23 20 19 20 22 23 24 24 24 23 22 22 22 22 21 21 21 22
18 15 14 13 13 13 13 14 13 14 16 18 19 19 19 18 18 18 19 20 20 18 16 16 16 17 19 21 21 21 21 21 21 22 22 23 23 24 24 23 24 23 22 20 20 21 22 23 24 24 24 23 22 21 21 21 22 23 23 23 23 23 22 22 22 22 22 22 22
16 14 12 12 13 13 13 13 12 13 14 16 17 18 18 17 17 18 18 19 18 17 16 16 16 17 18 21 21 21 21 21 22 22 23 23 23 24 24 24 24 24 23 22 21 21 22 23 24 24 24 24 23 22 21 21 21 22 23 23 23 22 22 21 22 22 22 22 22
13 12 12 12 13 13 13 13 12 12 13 15 16 17 18 17 17 17 17 17 17 16 16 18 17 17 17 18 19 19 19 20 21 21 22 22 23 23 23 23 24 24 24 23 22 22 22 23 23 23 24 24 23 22 22 21 20 21 22 22 21 21 21 20 21 22 22 22 22
12 11 11 12 13 13 14 14 13 13 14 15 16 17 18 18 17 16 15 16 17 18 19 20 19 18 18 19 18 17 17 18 20 20 21 21 22 22 22 23 23 24 24 23 23 23 23 23 23 22 22 22 22 22 21 20 20 20 21 21 21 21 20 20 21 22 22 22 22
11 11 11 12 13 14 15 15 15 15 15 15 16 17 18 19 18 16 15 17 19 20 21 22 20 19 19 19 19 17 17 18 20 20 21 21 21 22 22 22 22 23 23 23 23 23 23 23 23 22 22 21 21 21 20 20 19 20 20 21 21 21 21 21 22 22 22 22 21
10 10 11 11 12 14 15 15 15 15 15 15 16 17 18 19 18 17 16 18 20 22 23 23 21 19 19 20 19 18 17 17 19 20 21 21 21 21 22 22 22 22 22 22 22 23 23 23 23 23 22 21 21 21 21 21 20 20 20 19 20 21 21 21 22 22 22 21 21
10 10 10 10 11 13 14 15 15 15 15 15 16 18 18 18 17 17 18 19 22 24 24 23 21 20 19 20 20 20 18 16 18 19 20 20 21 21 21 21 21 21 21 21 22 22 23 22 22 22 22 21 22 22 21 21 20 21 21 19 19 20 22 22 22 22 21 20 20
8 8 9 9 10 11 12 13 14 15 15 15 16 17 17 17 17 18 19 21 23 24 23 21 21 20 20 20 20 19 18 16 17 18 19 19 19 20 20 20 20 21 21 21 21 22 22 22 22 22 21 20 21 22 21 21 21 21 21 20 20 21 22 22 21 21 20 19 19
7 7 7 8 8 9 11 12 13 14 15 15 15 16 16 17 18 19 21 22 22 21 21 19 20 20 20 20 20 19 18 17 18 18 18 18 19 19 20 19 20 21 21 20 20 21 21 21 21 21 21 20 21 21 22 21 21 21 21 22 22 21 21 21 20 19 18 18 18
7 6 6 6 7 8 9 11 12 13 14 15 15 16 17 18 20 21 22 22 20 19 18 16 17 19 20 19 19 19 19 18 18 19 19 19 19 19 20 18 19 20 19 17 18 18 19 18 19 19 20 19 20 20 21 21 21 21 21 22 21 21 20 20 19 18 18 18 18
7 6 5 6 6 7 8 10 11 13 14 14 15 16 17 19 20 20 20 20 19 18 18 17 17 17 17 17 18 18 18 18 19 19 19 19 19 19 19 17 17 17 16 15 16 18 19 17 17 17 17 17 18 18 19 20 21 21 20 20 20 19 19 18 18 18 18 19 18
6 5 4 5 6 6 7 9 11 13 14 14 15 16 17 18 17 17 17 18 18 17 17 17 16 16 15 16 17 17 17 16 17 18 18 18 19 19 18 16 15 14 13 14 16 18 19 19 17 16 16 16 17 17 18 19 20 20 19 18 18 18 18 17 18 19 19 19 18
5 4 4 5 6 6 7 8 10 11 12 13 14 14 15 15 14 14 14 16 16 16 16 16 15 14 14 14 16 17 17 15 16 17 18 18 19 19 19 16 14 13 13 14 16 18 19 20 18 17 16 17 17 17 17 17 18 18 18 17 17 17 18 17 18 19 19 19 18
4 4 4 5 6 6 7 7 8 9 10 11 11 11 11 12 12 13 13 14 14 14 14 14 13 12 12 13 15 17 17 17 16 17 18 18 19 19 19 17 15 14 13 14 16 18 19 19 18 17 16 16 16 16 16 16 16 16 16 15 16 16 17 17 17 17 18 19 19
4 3 4 5 6 7 7 8 9 9 10 10 11 11 11 12 13 14 14 14 14 14 13 13 12 11 11 12 14 16 17 18 17 16 17 18 19 19 19 18 17 15 14 14 16 18 19 19 18 17 16 15 14 13 14 14 13 13 13 13 14 15 16 16 15 16 16 18 20
5 3 3 3 5 6 7 8 9 10 11 12 14 15 15 15 15 15 15 16 16 15 14 13 11 11 12 13 14 15 16 17 16 16 17 18 19 19 18 18 17 15 14 15 17 18 18 18 18 17 17 16 13 11 11 11 11 11 12 12 14 16 17 17 17 17 17 18 19
6 5 3 2 2 4 5 7 8 9 10 11 14 15 16 16 15 15 15 15 16 16 14 13 12 12 13 14 14 15 15 16 15 16 16 17 18 18 19 19 18 15 13 16 17 18 18 19 18 18 18 17 13 11 11 11 12 12 12 13 15 17 17 17 18 19 19 20 18
7 6 5 4 3 2 3 7 7 8 8 9 9 10 10 11 12 12 12 12 13 14 13 13 13 14 15 16 15 16 16 16 16 16 16 16 17 18 18 18 16 12 11 16 18 18 19 19 19 19 19 17 14 13 13 12 13 13 13 15 17 17 17 14 16 18 19 19 17
7 6 6 5 5 4 4 5 7 8 8 7 6 6 6 6 7 8 9 9 10 11 13 13 14 15 16 17 16 15 15 15 15 15 15 16 17 18 17 15 12 9 10 16 18 19 20 20 20 20 19 18 14 13 14 14 13 12 13 14 16 17 17 16 16 17 18 18 16
8 7 7 7 7 6 6 6 8 9 9 8 7 7 7 7 7 8 9 9 9 11 13 14 15 15 15 15 14 14 14 13 14 15 16 17 17 17 15 11 8 8 10 16 19 20 21 21 22 21 20 17 13 11 12 14 12 11 11 13 14 16 16 17 17 17 18 18 16
8 7 7 8 8 8 7 7 8 9 10 11 11 11 11 11 12 12 13 12 13 13 14 14 14 13 12 12 12 12 13 13 14 15 16 16 16 15 14 11 8 9 12 17 19 21 21 21 21 20 17 13 10 9 9 11 10 9 10 10 12 13 14 15 16 16 17 18 17
8 8 8 8 9 8 7 7 7 8 10 11 12 12 12 13 14 14 15 15 15 15 14 13 12 12 11 11 11 11 12 13 14 14 15 15 15 13 12 11 9 10 12 16 18 19 19 19 18 17 14 11 8 8 9 9 9 10 11 12 11 10 10 11 11 13 14 16 18
8 8 8 9 9 8 6 5 6 7 8 8 9 9 10 11 12 12 12 12 12 12 11 11 11 12 12 12 12 11 12 13 13 13 13 12 12 11 11 11 10 11 12 15 17 18 19 19 19 17 15 12 10 10 10 10 10 11 12 13 12 11 10 8 9 10 11 14 16
9 9 9 9 8 7 5 4 5 5 5 5 5 6 7 7 8 7 7 6 8 9 9 9 9 10 11 11 11 11 11 12 11 11 10 9 9 10 11 12 11 11 13 15 18 20 22 22 21 19 16 13 12 11 11 10 10 11 11 11 11 11 10 9 9 9 10 11 12
7 8 8 8 7 6 4 3 3 3 4 4 4 5 6 6 6 5 4 4 6 7 7 6 5 5 6 6 7 8 9 8 8 8 8 8 9 11 12 13 12 13 14 17 20 22 23 23 22 20 18 15 13 12 11 11 12 12 11 11 10 11 11 10 10 10 11 12 13
2 2 4 5 5 5 4 3 3 3 3 4 5 5 6 5 4 4 4 4 5 4 3 3 3 4 5 4 4 4 3 2 4 6 8 9 10 11 13 14 14 14 15 18 21 23 24 24 23 21 18 15 13 12 11 11 12 12 12 10 10 10 10 10 10 10 11 12 13
6 4 2 2 3 4 5 5 5 4 4 4 5 5 4 4 4 4 4 4 4 4 5 5 7 8 8 7 7 8 8 7 7 8 9 10 10 11 12 14 15 14 14 16 20 23 25 25 24 21 18 15 13 12 11 11 12 13 12 11 10 10 10 10 10 10 10 11 11
Wind_Direction
241 240 237 235 234 234 234 235 235 235 234 232 229 227 225 225 224 223 222 221 222 222 221 219 216 214 214 214 216 215 213 209 206 204 203 202 201 200 199 197 192 187 184 184 186 189 192 195 197 199 200 198 196 195 194 191 193 194 195 194 193 193 192 190 190 189 189 186 181
240 239 238 237 237 237 238 238 237 236 234 233 231 228 226 225 224 222 220 219 220 220 221 220 217 215 213 212 214 214 214 211 207 205 203 203 202 200 197 196 192 187 184 183 186 189 191 193 194 196 199 199 196 195 193 188 190 193 195 194 194 193 191 191 190 189 189 189 186
239 239 238 236 236 236 236 237 237 236 235 235 232 229 227 225 224 223 221 218 217 218 219 219 217 215 213 211 211 212 213 212 208 205 203 203 202 199 196 194 190 187 184 183 187 189 191 191 192 194 197 199 198 196 193 187 190 194 196 195 194 192 190 190 188 188 189 191 191
238 237 238 237 236 235 235 236 237 236 236 235 233 231 229 226 224 223 222 220 217 216 216 216 215 214 212 210 210 210 212 212 209 206 203 202 201 199 196 193 190 187 185 185 187 189 190 190 191 193 196 200 200 198 194 188 190 194 197 196 195 193 190 187 185 185 187 190 192
236 235 235 237 236 236 235 235 235 236 236 236 234 231 229 226 225 223 222 220 217 215 213 212 211 209 209 210 210 210 211 212 210 207 204 201 200 198 196 193 191 188 186 186 188 189 190 189 190 192 195 198 200 198 194 188 190 194 197 197 195 194 191 185 183 184 186 188 190
238 237 236 237 237 237 236 234 234 234 235 235 234 232 229 226 223 221 220 219 218 216 213 211 208 206 206 209 209 209 209 210 210 208 205 201 199 198 196 194 192 189 187 188 189 189 189 189 191 192 194 196 199 198 194 189 190 193 197 197 195 193 190 186 183 184 186 187 188
244 241 238 236 236 235 235 233 232 231 232 233 234 233 231 227 224 222 220 218 217 216 213 210 206 203 203 204 206 207 207 208 209 208 206 202 200 197 196 194 192 190 189 189 189 189 190 191 193 194 194 195 198 197 195 190 189 193 196 197 195 192 190 188 184 184 186 188 188
248 244 240 236 234 233 232 231 229 228 227 228 230 231 231 229 226 224 221 218 216 214 213 210 207 204 202 200 202 204 205 206 207 207 206 204 200 198 196 194 193 191 190 189 190 190 190 192 196 196 195 195 197 196 195 191 190 193 196 196 194 192 190 188 186 186 187 190 190
253 247 241 236 232 229 228 227 226 225 224 225 226 228 229 229 227 225 222 219 215 213 211 211 208 205 202 199 199 200 202 203 205 206 205 204 201 199 196 195 194 192 191 189 191 191 191 193 197 198 198 197 197 196 194 192 192 195 197 197 194 191 190 189 188 188 189 191 192
257 250 244 238 232 228 225 225 225 224 224 224 224 225 226 227 227 225 223 219 215 212 210 209 207 205 202 199 198 198 199 201 203 204 204 203 201 199 196 195 194 194 192 190 191 192 193 194 197 199 200 199 198 196 194 192 193 196 199 198 193 191 190 190 190 190 191 192 194
259 254 248 242 236 232 228 225 224 223 222 222 222 223 224 225 226 225 223 219 216 212 210 207 205 203 201 199 198 198 198 199 200 201 202 202 201 199 197 194 194 193 192 190 191 192 193 195 197 198 199 200 198 197 195 193 194 197 200 200 194 191 191 192 191 191 193 194 195
261 256 249 243 240 238 234 229 226 223 221 219 219 220 221 223 224 224 222 219 216 213 210 205 202 200 199 198 198 198 199 199 199 200 201 201 201 199 197 195 194 193 192 191 191 191 192 194 196 197 198 198 197 196 195 194 195 198 200 201 195 192 192 193 192 192 194 196 197
261 254 246 239 238 238 236 233 229 224 220 217 216 216 218 221 222 222 222 220 216 213 210 205 200 197 196 196 197 197 199 200 200 199 199 200 200 199 197 194 194 194 193 193 192 192 192 193 195 196 196 196 197 196 195 195 196 198 200 201 197 194 194 194 194 194 195 197 198
260 252 243 236 235 235 235 233 231 225 219 214 212 212 215 219 220 221 220 219 216 213 209 204 200 196 194 194 195 197 198 199 200 200 200 200 200 199 196 194 193 194 195 194 194 193 193 193 195 195 195 195 197 197 197 196 197 198 200 201 199 197 196 196 195 196 197 198 200
257 250 241 235 233 233 232 231 230 225 219 213 210 209 211 215 218 218 218 217 214 212 208 203 200 196 194 193 194 196 197 198 200 200 201 201 201 199 197 194 193 193 195 195 195 195 194 194 195 195 195 195 197 198 198 198 199 199 200 201 201 199 198 196 196 197 198 199 201
255 247 239 235 233 232 230 228 227 223 218 213 208 207 209 212 215 216 216 215 212 209 205 201 198 196 194 193 194 195 196 197 199 200 200 201 201 200 198 195 193 193 195 196 196 196 196 196 196 196 195 195 197 199 200 200 200 200 201 202 202 201 199 197 197 197 199 201 203
253 244 237 234 233 232 230 228 225 221 216 212 207 206 207 209 212 213 212 211 208 205 202 200 197 194 193 193 193 194 194 196 197 198 199 199 200 200 199 197 195 194 194 196 196 197 197 197 198 198 197 196 198 199 201 201 201 202 202 202 202 202 200 197 197 198 200 202 204
251 242 235 232 231 230 229 228 225 220 215 210 207 206 206 208 209 209 209 207 204 201 200 201 198 194 192 193 193 193 193 194 196 197 197 197 199 199 200 199 197 195 195 196 197 197 198 198 200 200 199 198 199 200 202 202 202 203 203 202 203 202 201 198 198 199 200 202 204
250 240 233 229 227 226 226 225 222 218 214 209 206 205 206 208 208 207 205 204 202 200 199 201 198 195 192 193 193 192 192 193 195 196 196 196 197 198 199 199 198 197 196 196 197 198 199 199 200 201 201 200 200 201 202 203 203 204 204 203 203 203 201 200 199 200 201 202 203
253 242 234 227 223 221 220 220 218 215 212 209 205 205 205 207 206 204 202 201 201 200 199 199 195 192 192 193 192 191 191 192 194 195 195 195 195 196 197 197 197 197 196 196 198 199 199 200 201 202 202 201 201 201 202 204 205 205 204 204 204 203 203 202 201 202 202 202 201
261 249 238 230 223 219 216 214 213 212 210 208 205 203 204 206 205 203 201 202 201 200 198 195 191 190 191 193 192 190 190 191 193 195 195 195 195 195 195 195 195 196 196 196 197 198 199 200 201 202 202 202 202 202 203 204 205 205 205 204 203 204 204 204 203 203 202 201 199
265 256 246 235 227 220 216 210 208 207 208 207 205 203 203 204 204 203 202 203 202 200 196 191 189 190 191 192 191 190 189 189 192 194 196 195 195 194 194 194 194 194 195 195 196 198 199 200 201 202 202 202 203 203 203 204 205 205 205 204 203 203 204 205 204 202 200 198 196
270 265 257 247 232 222 216 209 204 204 205 205 203 202 201 200 200 201 202 203 201 197 193 189 189 190 191 192 190 189 188 188 191 194 196 196 195 194 193 193 194 194 195 195 196 197 198 200 202 203 203 203 203 204 204 204 205 205 205 203 202 202 203 204 202 200 198 196 195
275 271 265 259 242 227 216 209 203 201 202 202 201 199 198 196 197 199 200 199 197 193 190 189 189 189 190 190 190 189 188 188 191 194 196 196 195 193 192 193 194 195 196 195 196 196 196 198 200 202 203 203 203 203 204 205 205 205 204 203 201 200 200 200 199 197 196 195 194
278 275 267 262 251 235 218 207 202 200 199 199 198 197 195 194 195 196 196 194 191 190 189 189 188 188 188 189 190 189 188 188 191 193 195 196 195 193 192 192 194 195 196 196 195 195 195 196 198 199 201 202 202 202 203 204 205 205 203 201 198 197 196 197 196 195 194 193 192
272 275 272 265 256 240 222 209 203 200 198 197 196 195 194 193 191 191 191 191 188 187 187 188 187 187 187 187 187 187 188 188 190 193 195 196 195 194 192 191 193 194 195 195 194 194 194 195 195 197 198 200 200 201 202 203 204 203 201 198 196 195 194 194 195 195 194 193 191
245 243 247 253 248 238 226 215 207 201 197 194 194 194 193 191 186 187 188 189 186 184 184 186 186 185 185 185 186 186 187 188 191 194 196 197 197 196 194 193 192 193 194 192 190 189 190 190 191 193 196 200 200 200 201 201 201 201 199 195 194 193 192 192 193 194 194 194 192
235 208 201 219 226 224 221 219 214 206 198 191 195 197 196 190 185 186 188 188 184 182 183 184 184 184 185 185 186 187 188 189 191 194 196 198 198 198 197 196 194 193 191 185 182 182 183 185 185 188 192 197 199 200 201 200 199 197 196 193 193 192 191 191 191 192 192 193 191
257 220 191 194 201 202 204 208 211 206 197 188 192 197 198 193 189 188 189 186 184 185 186 184 183 185 187 187 186 187 188 191 192 194 196 198 199 200 201 200 197 192 183 172 173 175 177 179 179 180 183 188 195 199 200 199 196 195 194 193 192 191 190 189 188 188 188 190 191
270 257 223 191 189 187 187 191 199 198 194 189 191 193 193 192 191 190 188 185 185 189 190 185 183 186 189 189 187 186 188 191 193 195 196 197 198 201 203 203 201 192 176 162 167 170 173 174 173 174 175 180 188 194 198 197 193 191 191 191 191 190 188 186 184 185 186 189 187
281 282 278 255 214 184 172 171 182 189 192 193 191 190 189 189 189 188 186 184 184 187 189 183 183 187 192 191 187 187 188 190 193 196 197 198 198 200 203 205 204 192 170 159 165 169 171 171 170 170 171 173 180 187 192 193 189 187 185 186 186 185 183 180 181 183 184 182 173
273 276 280 283 271 232 177 159 165 176 189 198 192 190 190 191 189 186 184 182 183 184 184 181 184 190 194 193 190 188 188 191 194 197 199 200 199 199 201 205 199 183 161 162 167 169 170 170 170 169 168 169 176 184 188 187 184 181 179 180 179 178 176 174 178 178 175 168 158
245 248 253 261 260 249 213 170 164 171 184 202 199 199 203 212 205 194 186 182 187 186 185 182 186 192 195 194 191 189 189 191 194 198 201 203 201 199 198 201 189 169 157 168 170 171 171 171 170 169 168 167 173 181 185 183 180 178 176 177 176 173 171 169 170 169 165 158 149
222 225 232 237 240 235 221 195 178 176 180 191 194 200 207 216 217 206 194 188 194 194 190 186 188 192 195 194 192 191 190 191 194 198 202 205 203 198 193 189 177 164 164 174 173 173 172 172 171 169 167 165 171 180 184 180 178 174 171 171 175 175 173 170 168 165 161 154 146
209 216 227 234 235 231 222 208 192 186 185 188 190 194 199 203 207 204 198 194 197 197 195 188 187 190 193 195 197 195 193 192 194 198 201 205 203 196 187 175 167 165 170 177 175 173 171 170 167 163 159 156 164 170 170 164 157 150 146 149 159 165 168 167 165 162 157 150 145
202 210 225 236 237 233 227 219 209 202 197 195 194 194 196 199 202 201 198 196 198 198 196 188 183 184 188 195 199 200 198 195 195 196 199 205 202 192 178 166 160 162 169 175 170 165 161 156 149 142 135 131 133 132 130 126 122 118 116 117 123 130 137 144 147 147 147 145 144
198 207 220 233 236 233 229 227 227 222 215 208 205 204 204 204 207 204 201 199 201 200 197 191 185 183 185 190 196 200 202 200 197 196 196 201 196 182 167 158 155 157 160 163 154 147 141 136 130 125 121 119 120 118 116 113 109 106 104 102 100 99 99 103 109 118 126 134 137
198 204 214 226 232 232 230 232 238 235 228 218 217 220 223 222 222 217 210 209 211 208 205 202 196 189 186 187 191 197 202 205 201 195 188 183 178 167 158 152 150 151 150 148 141 136 132 129 126 123 121 122 122 120 117 114 109 106 102 98 93 87 81 79 79 84 93 105 116
206 206 210 219 225 227 227 227 229 224 215 204 206 214 222 228 231 230 228 231 226 220 214 210 200 185 175 176 184 194 202 209 202 189 172 159 156 153 150 147 146 147 147 145 139 135 131 128 126 124 123 124 124 122 119 115 112 109 106 102 95 87 81 77 77 77 78 80 88
305 233 209 208 208 203 195 188 184 179 178 180 188 195 202 208 213 211 211 221 220 208 181 155 123 106 99 100 133 146 152 158 168 158 147 141 141 141 141 142 143 145 147 147 141 136 132 129 126 125 124 124 125 124 121 118 114 112 109 106 102 95 88 83 83 83 81 77 77
9 19 57 148 165 165 163 159 156 155 157 166 175 178 180 181 178 173 170 171 151 130 116 113 106 99 92 86 90 88 85 83 97 109 116 120 125 129 134 137 139 143 147 148 142 137 133 130 128 127 127 126 127 125 123 120 116 114 112 110 107 103 99 94 90 87 84 81 77